STARLINK-31869 (60196 NORAD) Tracking and Keplerian Element Data

This shows tracking and keplerian element data for the satellite.

Feedback or suggestion? Click here.




ElementValue
Catalog60196
NameSTARLINK-31869
Epoch Orbit1570
Epoch Day286.7646754
Epoch Year2024
RAAN189.3139
Inclination53.157
Eccentricity8.25E-05
Argument of Perigee78.4846
Mean Anonmoly281.6251
Mean Motion15.3967389
Decay Rate0.00070442
L11 60196U 24124P 24286.76467540 .00070442 00000+0 17517-2 0 9995
L22 60196 53.1570 189.3139 0000825 78.4846 281.6251 15.39673890 15700



Live tracking and technical data element details for STARLINK-31869 (NORAD 60196). STARLINK-31869 can be tracked NOW for your location showing map with azimuth and elevation plus other details from your city location.







IsCatalogInMostPopularTable: catalog: 60196, numindb: 9
Update: records affected: 1



GetName: 60196 STARLINK-31869

Hit Count: updated at: Thu, 23 Jan 2025 14:15:50 GMT